Hourly Weather Roundup
Issued by NWS Central Illinois

Home | Current Version | Previous Version | Text Only | Print | Product List | Glossary On
Versions: 1 2 3 4 5 6 7 8 9 10 11 12 13 14 15 16 17 18 19 20 21 22 23 24 25 26 27 28 29 30 31 32 33 34 35 36 37 38 39 40 41 42 43 44 45 46 47 48 49 50
000
NZUS43 KILX 041310
HWRILX

AREA WEATHER ROUNDUP
NATIONAL WEATHER SERVICE, LINCOLN IL
800 AM CDT SAT JUL 04 2015


CITY           SKY/WX    TMP DP  RH WIND       PRES   REMARKS
BLOOMINGTON    SUNNY     67  60  78 CALM      30.02R
CHAMPAIGN      SUNNY     67  63  87 CALM      30.01R
DANVILLE       SUNNY     64  61  91 CALM      29.98R FOG
DECATUR        SUNNY     63  60  90 CALM      30.02R
EFFINGHAM      SUNNY     67  62  84 CALM      30.02R HAZE
FLORA          SUNNY     67  65  94 CALM      30.01R FOG
GALESBURG      SUNNY     65  61  87 CALM      30.01R
JACKSONVILLE   SUNNY     68  66  92 CALM      30.02R FOG
LACON          SUNNY     64  61  90 CALM      30.00R FOG
LAWRENCEVILLE  SUNNY     70  66  87 CALM      30.00R FOG
LITCHFIELD     SUNNY     67  63  87 E3        30.02R FOG
$$


CITY           SKY/WX    TMP DP  RH WIND       PRES   REMARKS
LINCOLN        SUNNY     65  61  89 CALM      30.02R FOG
MACOMB         SUNNY     63  61  95 CALM      30.03S
MATTOON        SUNNY     65  61  87 CALM      30.01R FOG
MT CARMEL AP   SUNNY     70  64  83 CALM      30.00R FOG
OLNEY-NOBLE AP SUNNY     68  64  88 CALM      30.00S
PARIS          SUNNY     64  64  98 CALM      30.02R FOG
PEORIA         SUNNY     69  62  78 NE3       30.01R
PONTIAC        SUNNY     65  63  92 CALM      30.01R FOG
RANTOUL        SUNNY     68  63  83 CALM      30.01R
ROBINSON       SUNNY     68  65  90 NE5       30.01R
SPRINGFIELD    SUNNY     69  64  84 CALM      30.01R
TAYLORVILLE    SUNNY     63  63 100 CALM      30.02R FOG
$$

...REGIONAL REPORTS...


CITY           SKY/WX    TMP DP  RH WIND       PRES   REMARKS
CHICAGO O`HARE SUNNY     67  56  67 NW5       29.98S
KANKAKEE       SUNNY     65  61  89 CALM      30.01R
MOLINE         SUNNY     64  60  87 CALM      30.00R FOG
MOUNT STERLING NOT AVBL
MOUNT VERNON   SUNNY     68  63  83 CALM      30.01R
PITTSFIELD     SUNNY     67  64  92 CALM      30.03R FOG
QUINCY         SUNNY     67  62  84 CALM      30.01R
ROCKFORD       SUNNY     62  57  83 CALM      30.01R
$$


CITY           SKY/WX    TMP DP  RH WIND       PRES   REMARKS
BURLINGTON     SUNNY     66  63  90 CALM      30.01R
CEDAR RAPIDS   SUNNY     63  60  90 CALM      30.00S
DES MOINES     SUNNY     65  57  75 CALM      30.00S
KIRKSVILLE     SUNNY     66  60  81 CALM      30.03R
OTTUMWA        SUNNY     63  59  87 CALM      30.00R
ST LOUIS       SUNNY     72  64  78 CALM      30.02R HAZE
$$


CITY           SKY/WX    TMP DP  RH WIND       PRES   REMARKS
TERRE HAUTE    SUNNY     69  63  81 CALM      30.00R
EVANSVILLE     SUNNY     71  66  84 E5        29.99R HAZE
INDIANAPOLIS   SUNNY     68  60  75 NE6       29.99R
LAFAYETTE      SUNNY     63  60  90 CALM      30.00R
MADISON        SUNNY     66  59  78 CALM      29.98R
MILWAUKEE      MOSUNNY   68  56  65 W8        29.97S
$$





USA.gov is the U.S. government's official web portal to all federal, state and local government web resources and services.